User: anonymous
Location: Shell Point
(30.0571°N, 84.2896°W)
Time: 03:30:30
(UTC-04:00)
Language:

Meteor 2-19 Rocket - Orbit

View from above orbital plane
View from above orbital plane
View from above satellite
View from above satellite

Ground track
Ground track

The orbit data is extracted from the following two-line orbital elements,

1 20671U 90057B   14243.22933481  .00000030  00000-0  14066-4 0   606
2 20671 082.5450 103.6505 0013952 306.9842 185.9273 13.84575569221782
Epoch (UTC): 31 August 2014 05:30:14
Eccentricity: 0.0013952
inclination: 82.5450°
perigee height: 937 km
apogee height: 958 km
right ascension of ascending node: 103.6505°
argument of perigee: 306.9842°
revolutions per day: 13.84575569
mean anomaly at epoch: 185.9273°
orbit number at epoch: 22178

The dashed part of the orbit path shows where the satellite is in the earth's shadow,  

DLR